Snowfall_Accumulation
0.0 0.0 0.0 0.0 0.0 0.0 0.0 0.0 0.0 0.0 0.0 0.0 0.0 0.0 0.0 0.0 0.0 0.0 0.0 0.0 0.0 0.1 0.0 0.1 0.1 0.2 1.0 0.9 0.6 0.7 1.1 1.4 4.4 0.2 0.0 0.0 0.0 0.0 0.0 0.0 0.0 0.0 0.0
0.0 0.0 0.0 0.0 0.0 0.0 0.0 0.0 0.0 0.0 0.0 0.0 0.0 0.0 0.0 0.0 0.0 0.0 0.0 0.0 0.0 0.1 0.1 0.2 0.2 0.0 0.2 0.2 1.0 0.5 0.8 0.3 2.7 1.2 0.0 0.4 0.3 0.0 0.0 0.0 0.0 0.0 0.0
0.0 0.0 0.0 0.0 0.0 0.0 0.0 0.0 0.0 0.0 0.0 0.0 0.0 0.0 0.0 0.0 0.0 0.0 0.0 0.0 0.0 0.0 0.1 0.3 0.3 0.3 0.4 1.4 1.1 1.9 1.7 0.4 1.3 2.4 2.5 0.9 0.8 0.4 0.3 0.1 0.0 0.0 0.0
0.0 0.0 0.0 0.0 0.0 0.0 0.0 0.0 0.0 0.0 0.0 0.0 0.0 0.0 0.0 0.0 0.0 0.0 0.1 0.0 0.0 0.0 0.0 0.3 0.3 0.7 0.8 1.9 0.9 0.4 0.4 1.2 1.2 2.1 2.0 2.0 1.6 0.9 0.7 1.4 1.3 0.7 0.6
0.0 0.0 0.0 0.0 0.0 0.0 0.0 0.0 0.0 0.0 0.0 0.0 0.0 0.0 0.0 0.0 0.0 0.1 0.3 0.2 0.0 0.0 0.1 0.0 0.1 nan nan nan 2.7 1.0 1.0 1.3 1.8 2.6 2.5 1.9 2.1 2.5 2.9 1.9 1.6 1.2 0.6
0.0 0.0 0.0 0.0 0.0 0.0 0.0 0.0 0.0 0.0 0.0 0.0 0.0 0.0 0.0 0.0 nan nan 0.1 0.0 0.0 0.1 0.2 0.0 0.0 0.2 0.3 nan nan nan nan 4.2 1.2 2.2 1.5 1.9 0.5 2.1 1.8 2.6 2.3 2.2 3.4
0.0 0.0 0.0 0.0 0.0 0.0 0.0 0.0 0.0 0.0 0.0 0.0 0.0 0.0 0.0 0.0 nan nan nan 0.0 0.1 0.4 0.4 0.2 0.2 0.0 nan 0.5 nan nan nan nan 0.4 1.0 1.4 0.9 0.4 0.2 0.2 0.3 0.6 1.9 2.0
0.0 0.0 0.0 0.0 0.0 0.0 0.0 0.0 0.0 0.0 0.0 0.0 0.0 0.0 0.0 0.0 nan nan nan 0.0 0.0 0.0 0.1 0.4 0.7 0.7 0.4 2.6 1.0 0.3 0.5 0.4 0.2 0.3 0.6 0.2 0.2 0.1 0.1 0.1 0.2 0.2 0.4
0.0 0.0 0.0 0.0 0.0 0.0 0.0 0.0 0.0 0.0 0.0 0.0 0.0 0.0 0.0 0.0 nan nan 0.1 0.0 0.0 0.0 0.0 0.2 1.8 1.5 nan nan 1.3 1.0 0.4 0.4 nan nan nan nan nan nan nan 0.7 1.2 1.8 1.6
0.0 0.0 0.0 0.0 0.0 0.0 0.0 0.0 0.0 0.0 0.0 0.0 0.0 0.0 nan 0.0 nan nan nan 0.1 0.1 0.1 0.0 0.0 nan 1.5 nan nan 2.7 2.7 1.4 0.9 1.0 0.3 0.3 0.2 nan nan nan 0.2 0.3 1.2 1.6
0.0 0.0 0.0 0.0 0.0 0.0 0.0 0.0 0.0 0.0 0.0 0.0 0.0 0.0 0.0 0.0 0.0 nan nan 0.6 3.0 0.3 0.2 0.4 0.5 nan nan nan nan 4.7 7.1 2.7 0.5 0.9 0.9 0.9 0.6 0.3 0.4 0.2 0.1 0.3 1.1
0.0 0.0 0.0 0.0 0.0 0.0 0.0 0.0 0.0 0.0 0.0 0.0 0.0 0.0 0.0 0.0 nan nan nan nan nan 2.9 2.7 2.3 3.1 nan nan nan 3.0 nan nan 0.5 1.5 1.8 1.7 2.2 1.6 1.3 0.7 0.5 0.1 0.1 0.1
0.0 0.0 0.0 0.0 0.0 0.0 0.0 0.0 0.0 0.0 0.0 0.0 0.0 0.1 0.1 0.0 0.1 nan nan nan nan 3.8 3.9 3.9 nan nan nan 0.3 nan nan 0.5 2.8 3.6 4.0 3.3 3.0 1.9 0.8 0.2 0.3 0.1 0.0 0.0
0.3 0.0 0.0 0.0 0.0 0.0 0.0 0.0 0.0 0.1 0.2 0.2 0.3 0.4 0.3 0.2 0.3 0.2 0.5 0.2 nan 2.9 1.3 4.8 1.4 4.1 0.9 1.5 2.4 3.3 4.2 5.1 6.9 5.9 4.4 2.6 1.1 1.2 1.2 0.6 0.9 0.9 1.8
0.0 0.0 0.0 0.0 0.0 0.0 0.0 0.2 0.2 0.1 0.4 0.5 0.7 0.5 2.1 3.9 4.3 1.0 1.7 2.9 3.3 4.5 3.9 4.1 4.1 3.3 2.9 2.1 2.0 3.3 3.3 2.6 4.9 4.4 4.3 3.6 2.4 1.6 2.0 1.0 1.1 1.7 3.5
0.0 0.0 0.0 0.0 0.0 0.0 0.0 0.1 nan nan nan nan nan 0.6 3.1 nan nan nan nan nan nan nan 2.9 3.8 6.0 6.2 6.7 6.4 6.1 4.7 2.8 3.4 5.6 5.6 5.5 4.9 4.9 3.7 3.2 3.1 3.0 3.9 4.4
0.0 0.0 0.0 0.0 0.0 0.0 0.1 0.1 0.4 0.4 nan nan nan nan nan nan nan nan nan nan nan nan 4.4 5.0 7.9 9.8 9.4 7.6 8.1 9.0 11.1 9.9 5.6 6.3 7.3 7.4 6.7 5.3 5.3 4.5 4.5 4.4 4.5
0.0 0.0 0.1 0.1 0.2 0.2 0.3 0.3 0.3 0.7 1.3 0.6 nan nan nan nan nan nan nan nan 5.4 nan 2.5 4.2 7.0 8.1 8.6 9.6 9.5 10.4 8.3 7.5 7.8 8.1 7.4 8.1 8.2 6.8 6.0 5.3 4.3 4.8 4.3
0.0 0.0 0.0 0.0 0.1 0.0 0.1 0.1 0.1 0.2 0.2 0.2 0.1 0.1 0.0 nan nan nan nan 0.8 2.6 2.4 2.2 2.6 3.1 4.0 6.9 7.5 10.5 11.8 14.9 15.4 14.4 12.5 9.6 10.9 11.8 6.2 6.4 5.5 4.6 2.6 2.4
0.0 0.0 0.0 0.0 0.1 0.1 0.1 0.1 0.1 0.1 0.2 0.1 0.2 0.4 0.2 0.1 0.7 2.7 1.5 4.4 3.4 1.5 1.8 2.0 1.9 2.2 3.6 5.4 8.2 11.9 11.8 13.2 12.9 11.1 14.1 14.3 12.4 7.1 8.5 7.5 5.8 5.5 3.5
0.0 0.0 0.0 0.0 0.1 0.1 0.1 0.2 0.2 0.2 0.3 0.2 0.3 0.5 0.0 0.2 0.6 0.7 0.8 1.9 1.6 1.5 2.6 1.8 2.3 2.6 3.2 3.8 3.5 6.6 6.8 12.8 12.4 12.9 12.3 11.4 20.4 13.5 6.8 5.5 5.2 4.2 3.8
0.0 0.0 0.0 0.1 0.1 0.2 0.2 0.1 0.2 0.2 0.3 0.4 0.4 0.3 0.7 0.6 0.4 0.6 0.7 1.7 2.9 0.9 1.2 2.2 2.7 3.4 3.9 4.6 4.0 7.6 7.0 9.8 9.1 12.1 13.6 12.9 11.0 9.3 7.6 7.2 6.6 5.5 4.1
0.0 0.1 0.1 0.1 0.1 1.5 0.3 0.2 0.3 0.4 0.4 0.5 0.5 0.7 0.8 1.2 1.1 0.9 1.4 2.5 1.1 2.0 1.9 2.1 4.4 3.8 2.9 4.2 3.0 3.3 6.3 7.0 7.5 8.3 10.7 11.1 10.1 9.4 8.7 7.8 6.2 6.4 5.3
0.0 0.2 0.1 0.3 0.5 0.3 0.6 1.2 0.6 3.4 0.7 0.9 2.2 1.5 1.5 2.0 4.8 3.5 4.2 4.9 3.3 4.8 5.4 7.0 3.7 4.2 4.6 6.2 3.5 2.9 3.6 6.7 4.2 4.6 4.3 5.5 5.6 6.1 6.9 7.1 6.6 5.9 6.4
0.2 0.4 0.5 0.4 0.6 1.8 2.9 1.4 1.5 1.8 1.7 2.6 3.9 3.0 0.9 2.1 2.2 7.3 6.0 4.7 5.2 7.6 5.3 7.9 7.8 4.8 6.1 6.0 6.6 3.3 4.2 3.0 5.2 3.6 4.5 2.4 3.9 3.5 5.0 5.4 6.0 5.4 5.9
0.2 0.3 0.4 0.5 0.8 1.9 2.0 5.6 5.5 3.3 4.5 4.6 5.3 6.0 4.5 3.0 2.9 7.6 5.6 6.2 6.7 6.5 6.0 7.9 7.8 6.8 5.4 4.3 4.2 6.0 5.0 4.0 7.2 4.4 6.3 3.6 5.6 4.7 3.8 3.0 2.8 4.1 3.8
Water_Equivalent
0.00 0.00 0.00 0.00 0.00 0.00 0.00 0.00 0.00 0.00 0.00 0.00 0.00 0.00 0.00 0.00 0.00 0.00 0.00 0.00 0.00 0.02 0.01 0.03 0.03 0.03 0.22 0.20 0.13 0.14 0.22 0.27 0.64 0.04 0.01 0.00 0.00 0.00 0.00 0.00 0.00 0.00 0.00
0.00 0.00 0.00 0.00 0.00 0.00 0.00 0.00 0.00 0.00 0.00 0.00 0.00 0.00 0.00 0.00 0.00 0.00 0.00 0.00 0.00 0.01 0.02 0.05 0.04 0.01 0.05 0.03 0.22 0.09 0.14 0.07 0.48 0.20 0.01 0.13 0.09 0.00 0.00 0.00 0.00 0.00 0.00
0.00 0.00 0.00 0.00 0.00 0.00 0.00 0.00 0.00 0.00 0.00 0.00 0.00 0.00 0.00 0.00 0.00 0.00 0.01 0.00 0.00 0.00 0.02 0.05 0.05 0.05 0.07 0.30 0.24 0.41 0.39 0.09 0.28 0.48 0.62 0.29 0.26 0.14 0.12 0.03 0.01 0.00 0.00
0.00 0.00 0.00 0.00 0.00 0.00 0.00 0.00 0.00 0.00 0.00 0.00 0.00 0.00 0.00 0.00 0.00 0.01 0.01 0.01 0.00 0.00 0.01 0.05 0.04 0.11 0.13 0.30 0.15 0.09 0.09 0.30 0.30 0.49 0.50 0.54 0.47 0.31 0.27 0.49 0.43 0.29 0.24
0.00 0.00 0.00 0.00 0.00 0.00 0.00 0.00 0.00 0.00 0.00 0.00 0.00 0.00 0.00 0.00 0.00 0.03 0.05 0.03 0.00 0.01 0.01 0.00 0.02 nan nan nan 0.49 0.17 0.16 0.24 0.39 0.53 0.52 0.45 0.49 0.59 0.63 0.54 0.54 0.46 0.25
0.00 0.00 0.00 0.00 0.00 0.00 0.00 0.00 0.00 0.00 0.00 0.00 0.00 0.00 0.00 0.00 nan nan 0.01 0.00 0.00 0.01 0.03 0.00 0.01 0.03 0.05 nan nan nan nan 0.66 0.20 0.40 0.33 0.35 0.11 0.47 0.42 0.62 0.60 0.59 0.92
0.00 0.00 0.00 0.00 0.00 0.00 0.00 0.00 0.00 0.00 0.00 0.00 0.00 0.00 0.00 0.00 nan nan nan 0.00 0.01 0.05 0.05 0.03 0.02 0.00 nan 0.09 nan nan nan nan 0.13 0.18 0.22 0.19 0.08 0.04 0.04 0.06 0.12 0.42 0.58
0.00 0.00 0.00 0.00 0.00 0.00 0.00 0.00 0.00 0.00 0.00 0.00 0.00 0.00 0.00 0.00 nan nan nan 0.00 0.00 0.01 0.02 0.06 0.11 0.11 0.07 0.40 0.16 0.05 0.09 0.06 0.05 0.06 0.12 0.05 0.05 0.02 0.03 0.02 0.04 0.05 0.13
0.00 0.00 0.00 0.00 0.00 0.00 0.00 0.00 0.00 0.00 0.00 0.00 0.00 0.00 0.00 0.00 nan nan 0.02 0.00 0.00 0.00 0.00 0.04 0.26 0.22 nan nan 0.20 0.15 0.07 0.08 nan nan nan nan nan nan nan 0.16 0.26 0.36 0.41
0.00 0.00 0.00 0.00 0.00 0.00 0.00 0.00 0.00 0.00 0.00 0.00 0.00 0.00 nan 0.00 nan nan nan 0.01 0.01 0.01 0.00 0.00 nan 0.24 nan nan 0.39 0.39 0.20 0.15 0.17 0.07 0.06 0.05 nan nan nan 0.03 0.11 0.30 0.36
0.00 0.00 0.00 0.00 0.00 0.00 0.00 0.00 0.00 0.00 0.00 0.00 0.00 0.00 0.00 0.00 0.00 nan nan 0.08 0.39 0.04 0.04 0.07 0.09 nan nan nan nan 0.71 1.04 0.45 0.09 0.21 0.21 0.27 0.16 0.08 0.13 0.05 0.03 0.10 0.28
0.00 0.00 0.00 0.00 0.00 0.00 0.00 0.00 0.00 0.00 0.00 0.00 0.00 0.00 0.00 0.00 nan nan nan nan nan 0.36 0.35 0.35 0.48 nan nan nan 0.56 nan nan 0.14 0.34 0.40 0.38 0.51 0.38 0.33 0.21 0.15 0.01 0.02 0.05
0.00 0.01 0.00 0.00 0.00 0.00 0.00 0.00 0.00 0.00 0.00 0.00 0.02 0.03 0.03 0.01 0.03 nan nan nan nan 0.55 0.59 0.63 nan nan nan 0.11 nan nan 0.15 0.60 0.86 1.04 0.77 0.68 0.47 0.24 0.05 0.09 0.02 0.00 0.01
0.10 0.00 0.00 0.00 0.00 0.00 0.00 0.00 0.01 0.03 0.06 0.07 0.09 0.13 0.10 0.08 0.08 0.08 0.16 0.10 nan 0.70 0.35 1.12 0.46 0.88 0.29 0.43 0.69 0.79 0.81 1.00 1.34 1.13 0.87 0.55 0.29 0.30 0.29 0.17 0.23 0.23 0.39
0.00 0.00 0.00 0.00 0.00 0.00 0.00 0.07 0.06 0.04 0.13 0.18 0.22 0.17 0.67 1.17 1.18 0.29 0.50 0.77 0.90 0.98 1.25 1.50 1.49 1.11 0.85 0.55 0.46 0.67 0.59 0.47 0.87 0.86 0.90 0.80 0.55 0.40 0.47 0.24 0.26 0.40 0.71
0.00 0.00 0.00 0.00 0.00 0.00 0.00 0.04 nan nan nan nan nan 0.22 1.25 nan nan nan nan nan nan nan 0.91 1.07 1.52 1.52 1.21 1.02 1.00 0.82 0.54 0.72 0.97 1.03 1.12 0.99 1.01 0.83 0.72 0.67 0.64 0.77 0.86
0.00 0.00 0.00 0.00 0.00 0.02 0.03 0.05 0.15 0.16 nan nan nan nan nan nan nan nan nan nan nan nan 1.26 1.30 1.80 2.10 1.56 1.13 1.17 1.30 1.61 1.53 0.85 1.16 1.38 1.55 1.48 1.20 1.22 0.94 0.94 0.87 0.87
0.00 0.00 0.02 0.05 0.06 0.09 0.11 0.12 0.12 0.26 0.51 0.25 nan nan nan nan nan nan nan nan 1.40 nan 0.67 0.98 1.46 1.51 1.38 1.42 1.42 1.52 1.30 1.33 1.44 1.54 1.54 1.78 1.94 1.50 1.41 1.16 0.91 1.02 0.86
0.00 0.01 0.01 0.01 0.03 0.02 0.03 0.04 0.05 0.06 0.07 0.07 0.05 0.03 0.01 nan nan nan nan 0.24 0.58 0.53 0.49 0.57 0.65 0.71 1.06 1.11 1.73 1.98 2.58 2.60 2.64 2.78 2.04 2.47 3.33 1.33 1.48 1.22 0.96 0.62 0.55
0.00 0.00 0.00 0.02 0.03 0.04 0.03 0.05 0.05 0.05 0.06 0.05 0.07 0.10 0.07 0.05 0.23 0.87 0.47 1.31 0.88 0.36 0.38 0.38 0.37 0.40 0.62 0.86 1.48 2.51 2.32 2.50 2.23 2.03 3.07 3.71 3.36 1.66 1.96 1.76 1.42 1.27 0.75
0.00 0.01 0.00 0.00 0.02 0.03 0.04 0.06 0.06 0.08 0.09 0.08 0.10 0.18 0.01 0.06 0.17 0.20 0.22 0.50 0.37 0.31 0.54 0.35 0.44 0.54 0.62 0.74 0.59 1.18 1.04 2.78 1.83 2.04 2.06 2.13 5.98 2.89 1.48 1.27 1.24 0.97 0.89
0.00 0.01 0.01 0.03 0.03 0.07 0.06 0.04 0.07 0.08 0.08 0.11 0.12 0.11 0.23 0.21 0.13 0.17 0.19 0.50 0.95 0.22 0.24 0.43 0.47 0.54 0.59 0.67 0.65 1.79 1.44 2.16 1.85 1.95 2.19 2.31 2.05 1.87 1.63 1.61 1.60 1.41 1.03
0.01 0.05 0.03 0.03 0.04 0.51 0.12 0.06 0.12 0.16 0.13 0.18 0.14 0.19 0.23 0.38 0.36 0.25 0.41 0.89 0.32 0.51 0.48 0.43 0.95 0.65 0.53 0.78 0.62 0.59 1.06 1.09 1.22 1.43 1.99 2.01 1.70 1.75 1.99 1.74 1.41 1.56 1.32
0.02 0.06 0.05 0.11 0.18 0.10 0.23 0.42 0.20 1.11 0.24 0.31 0.76 0.51 0.45 0.62 1.78 1.24 1.49 1.86 1.09 1.62 1.74 1.93 0.70 0.60 0.63 1.53 0.78 0.58 0.58 1.08 0.75 0.90 0.90 1.27 1.08 1.27 1.47 1.51 1.40 1.33 1.52
0.09 0.16 0.19 0.13 0.20 0.65 1.05 0.49 0.50 0.62 0.58 0.90 1.36 0.97 0.23 0.67 0.63 2.44 1.87 1.34 1.36 2.26 1.28 1.84 1.58 0.96 1.12 1.03 1.06 0.43 0.66 1.00 1.05 1.17 1.00 0.50 0.85 0.82 1.13 1.19 1.41 1.23 1.36
0.08 0.10 0.16 0.20 0.28 0.68 0.67 1.77 1.73 1.08 1.37 1.48 1.72 1.94 1.32 0.79 0.73 2.09 1.37 1.42 1.44 1.40 1.29 1.63 1.57 1.29 1.00 0.86 0.67 1.87 1.65 1.31 1.50 1.45 1.51 0.84 1.31 1.18 1.01 0.82 0.80 1.09 0.77
SL_Ratio
nan nan nan nan nan nan nan nan nan nan nan nan nan nan nan nan nan nan nan nan 4.0 4.0 3.7 4.4 4.8 5.4 4.6 4.4 4.4 4.7 5.2 5.2 6.8 4.3 2.9 nan nan nan nan nan nan nan nan
nan nan nan nan nan nan nan nan nan nan nan nan nan nan nan nan nan nan nan nan 5.0 4.5 4.3 4.6 4.3 6.7 5.1 5.4 4.6 5.8 6.1 4.5 5.6 6.0 3.6 3.2 2.9 nan nan nan nan nan nan
nan nan nan nan nan nan nan nan nan nan nan nan nan nan nan nan nan nan 4.4 nan 6.7 4.2 5.4 6.3 5.9 6.0 5.3 4.5 4.5 4.7 4.4 4.8 4.5 5.1 4.0 3.2 3.0 2.7 2.8 2.6 2.7 2.5 nan
nan nan nan nan nan nan nan nan nan nan nan nan nan nan nan nan nan 4.2 5.6 6.9 nan nan 5.4 6.4 6.4 6.2 5.8 6.2 6.1 4.6 4.3 4.1 3.8 4.4 4.0 3.7 3.5 2.9 2.7 2.8 3.0 2.5 2.5
nan nan nan nan nan nan nan nan nan nan nan nan nan nan nan nan nan 5.2 6.0 6.7 5.0 5.4 6.3 5.0 6.3 nan nan nan 5.5 5.8 6.0 5.4 4.7 4.9 4.7 4.3 4.2 4.3 4.6 3.5 3.0 2.6 2.5
nan nan nan nan nan nan nan nan nan nan nan nan nan nan nan nan nan nan 5.3 10.0 10.0 6.5 7.7 5.0 6.5 6.0 5.5 nan nan nan nan 6.3 6.2 5.4 4.6 5.3 4.9 4.5 4.2 4.2 3.9 3.7 3.7
nan nan nan nan nan nan nan nan nan nan nan nan nan nan nan nan nan nan nan nan 6.8 7.4 7.5 7.4 6.5 7.0 nan 5.9 nan nan nan nan 3.0 5.7 6.1 5.0 5.0 4.5 4.5 4.7 5.2 4.5 3.6
nan nan nan nan nan nan nan nan nan nan nan nan nan nan nan nan nan nan nan nan nan 6.8 7.0 6.8 6.7 6.5 5.7 6.4 6.2 5.7 5.8 5.7 5.1 5.1 5.1 4.5 4.3 3.7 4.4 4.1 4.1 3.8 2.8
nan nan nan nan nan nan nan nan nan nan nan nan nan nan nan nan nan nan 6.7 nan nan 5.0 5.0 6.4 6.8 6.9 nan nan 6.4 6.4 5.9 5.7 nan nan nan nan nan nan nan 4.3 4.4 4.9 3.9
nan nan nan nan nan nan nan nan nan nan nan nan nan nan nan nan nan nan nan 6.9 7.7 7.7 nan nan nan 6.4 nan nan 6.8 6.9 6.9 6.2 5.8 4.9 4.7 4.7 nan nan nan 5.0 3.2 4.2 4.3
nan nan nan nan nan nan nan nan nan nan nan nan nan nan nan nan nan nan nan 7.1 7.9 7.4 5.7 6.3 6.0 nan nan nan nan 6.7 6.8 6.1 5.1 4.2 4.2 3.5 3.6 3.6 3.3 3.4 4.6 3.1 4.0
nan nan nan nan nan nan nan nan nan nan nan nan nan nan nan nan nan nan nan nan nan 8.0 7.7 6.5 6.6 nan nan nan 5.2 nan nan 3.7 4.4 4.6 4.5 4.3 4.2 4.0 3.4 3.2 4.0 2.6 2.6
nan 3.0 nan nan nan nan nan nan nan nan nan 5.0 2.6 2.6 2.5 2.7 2.9 nan nan nan nan 7.0 6.6 6.2 nan nan nan 3.0 nan nan 3.0 4.6 4.1 3.8 4.3 4.4 4.1 3.4 3.2 3.5 4.2 5.0 3.8
2.8 nan nan nan nan nan nan nan 2.5 2.9 2.8 2.8 2.8 2.9 2.9 2.6 3.1 2.7 2.8 2.6 nan 4.1 3.8 4.3 3.0 4.7 3.0 3.5 3.4 4.2 5.1 5.1 5.2 5.3 5.0 4.6 3.7 4.0 4.1 3.6 3.7 3.7 4.6
nan nan nan nan nan nan 2.1 2.5 2.5 2.6 2.9 2.9 3.0 3.1 3.1 3.3 3.6 3.3 3.5 3.8 3.6 4.6 3.1 2.7 2.7 3.0 3.4 3.8 4.4 4.9 5.6 5.6 5.6 5.1 4.8 4.5 4.4 4.2 4.2 4.0 4.1 4.3 5.0
nan nan nan nan nan nan 2.9 2.5 nan nan nan nan nan 2.6 2.5 nan nan nan nan nan nan nan 3.2 3.6 4.0 4.1 5.5 6.2 6.1 5.8 5.3 4.7 5.8 5.5 4.9 4.9 4.8 4.5 4.5 4.6 4.8 5.0 5.1
nan nan nan nan nan 2.9 2.6 2.6 2.5 2.5 nan nan nan nan nan nan nan nan nan nan nan nan 3.5 3.9 4.4 4.7 6.0 6.7 6.9 6.9 6.9 6.5 6.6 5.4 5.3 4.8 4.5 4.4 4.3 4.8 4.8 5.1 5.2
nan nan 2.4 2.5 2.5 2.5 2.5 2.5 2.5 2.5 2.5 2.5 nan nan nan nan nan nan nan nan 3.8 nan 3.8 4.3 4.8 5.4 6.2 6.7 6.7 6.8 6.4 5.6 5.4 5.3 4.8 4.5 4.2 4.5 4.3 4.6 4.7 4.7 4.9
nan 2.5 2.6 2.5 2.5 2.6 2.5 2.5 2.6 2.6 2.7 2.7 2.6 2.7 2.5 nan nan nan nan 3.4 4.4 4.5 4.5 4.7 4.7 5.6 6.5 6.7 6.1 6.0 5.8 5.9 5.5 4.5 4.7 4.4 3.5 4.6 4.3 4.5 4.8 4.3 4.3
nan nan 2.9 2.4 2.4 2.5 2.5 2.7 2.7 2.7 2.8 3.1 3.7 4.2 3.2 2.8 3.1 3.1 3.1 3.3 3.8 4.3 4.7 5.3 5.2 5.5 5.8 6.3 5.6 4.7 5.1 5.3 5.8 5.4 4.6 3.8 3.7 4.3 4.3 4.3 4.1 4.3 4.7
nan 2.5 nan 3.3 2.6 2.6 2.5 2.6 2.8 2.8 2.9 3.1 3.3 2.8 3.3 3.1 3.6 3.5 3.8 3.8 4.3 4.8 4.8 5.3 5.2 4.8 5.1 5.1 5.9 5.6 6.6 4.6 6.8 6.3 5.9 5.4 3.4 4.7 4.6 4.3 4.2 4.3 4.3
nan 2.7 2.6 2.5 2.5 2.5 2.7 2.6 2.6 2.9 3.0 3.2 3.0 2.9 3.0 2.8 3.3 3.7 3.6 3.3 3.0 4.1 4.8 5.3 5.8 6.2 6.6 6.9 6.2 4.3 4.9 4.5 4.9 6.2 6.2 5.6 5.4 5.0 4.7 4.4 4.1 3.9 4.0
2.5 2.5 2.5 2.5 2.5 3.0 2.6 2.7 2.8 2.7 3.0 2.8 3.2 3.5 3.5 3.1 3.1 3.6 3.5 2.8 3.5 3.8 4.0 4.8 4.6 5.8 5.5 5.4 4.9 5.7 5.9 6.4 6.1 5.8 5.4 5.5 5.9 5.4 4.4 4.5 4.4 4.1 4.0
2.6 2.5 2.5 2.5 2.7 2.9 2.8 2.8 2.9 3.0 3.1 3.0 2.9 3.0 3.3 3.2 2.7 2.8 2.8 2.6 3.0 3.0 3.1 3.6 5.4 7.1 7.2 4.1 4.5 4.9 6.1 6.2 5.6 5.2 4.8 4.3 5.2 4.8 4.7 4.7 4.7 4.4 4.2
2.5 2.5 2.5 2.7 2.9 2.8 2.8 2.8 3.0 2.9 3.0 2.9 2.9 3.1 3.8 3.2 3.5 3.0 3.2 3.5 3.8 3.4 4.2 4.3 4.9 5.0 5.4 5.9 6.2 7.7 6.4 3.0 4.9 3.0 4.5 4.8 4.5 4.3 4.5 4.6 4.2 4.4 4.3
2.5 2.5 2.6 2.8 2.9 2.9 3.0 3.2 3.2 3.1 3.3 3.1 3.1 3.1 3.4 3.8 4.0 3.6 4.0 4.3 4.6 4.6 4.6 4.9 4.9 5.2 5.4 5.0 6.3 3.2 3.0 3.0 4.8 3.0 4.1 4.3 4.3 3.9 3.7 3.6 3.5 3.7 4.9